Date String (YYYY-MM-DD hh:mm:ss) UTC,Instrument flags,Ambient pressure (hPa),Sample flow (lpm),Bypass flow (lpm),Sample temperature (°C),Ambient temperature (°C),ASC tube jacket temperature (°C),LED temperature (°C),Box temperature (°C),Sample RH (%),Span deviation,Mass concentration (μg/m³),Mass concentration (μg/m³),Mass concentration (μg/m³)
DateTimeUTC,F1_M11,P_M11,Q1_M11,Q2_M11,T1_M11,T2_M11,T3_M11,T4_M11,T5_M11,U1_M11,ZSPAN_M11,X2_M11,X0_M11,X1_M11
2022-05-24 12:00:00,,0825.3,5.01,0.00,28.0,26.9,00.0,36.9,29.8,19.5,-001.5,0008.62,0012.55,0008.22
2022-05-24 12:01:00,,0825.3,5.00,0.00,28.0,26.9,00.0,36.9,29.8,19.4,-001.7,0008.51,0012.38,0008.12
2022-05-24 12:02:00,,0825.3,5.01,0.00,28.0,26.9,00.0,36.9,29.8,19.4,-001.9,0008.41,0011.96,0008.02
2022-05-24 12:03:00,,0825.3,5.01,0.00,28.0,26.9,00.0,36.9,29.8,19.3,-002.1,0008.35,0012.03,0007.95
2022-05-24 12:04:00,,0825.3,4.99,0.00,28.0,26.9,00.0,36.9,29.8,19.3,-002.2,0008.29,0012.54,0007.88
2022-05-24 12:05:00,,0825.3,4.99,0.00,28.0,26.9,00.0,36.9,29.8,19.2,-002.6,0008.19,0012.35,0007.80
2022-05-24 12:06:00,,0825.3,4.99,0.00,28.0,26.8,00.0,36.9,29.8,19.2,-002.7,0008.11,0012.10,0007.72
2022-05-24 12:07:00,,0825.3,5.00,0.00,28.0,26.8,00.0,36.9,29.8,19.2,-002.7,0008.01,0012.11,0007.64
2022-05-24 12:08:00,,0825.3,5.01,0.00,28.0,26.8,00.0,36.9,29.8,19.2,-002.5,0008.00,0012.19,0007.63
2022-05-24 12:09:00,,0825.3,5.00,0.00,28.0,26.8,00.0,36.9,29.8,19.1,-002.5,0008.01,0011.84,0007.63
2022-05-24 12:10:00,,0825.3,5.01,0.00,28.0,26.8,00.0,36.9,29.8,19.1,-002.7,0008.00,0011.45,0007.62
2022-05-24 12:11:00,,0825.3,4.99,0.00,28.0,26.8,00.0,36.9,29.8,19.1,-002.4,0007.96,0011.43,0007.57
2022-05-24 12:12:00,,0825.3,5.01,0.00,28.0,26.8,00.0,36.9,29.8,19.1,-002.0,0007.92,0011.35,0007.55
2022-05-24 12:13:00,,0825.3,5.00,0.00,28.0,26.8,00.0,36.9,29.8,19.1,-001.9,0007.92,0011.37,0007.54
2022-05-24 12:14:00,,0825.3,5.00,0.00,27.9,26.8,00.0,36.9,29.8,19.1,-001.8,0007.88,0011.24,0007.52
2022-05-24 12:15:00,,0825.3,4.98,0.00,28.0,26.8,00.0,36.9,29.8,19.1,-001.8,0007.89,0011.03,0007.51
2022-05-24 12:16:00,,0825.3,5.00,0.00,27.9,26.8,00.0,36.9,29.8,19.1,-001.6,0007.88,0011.19,0007.50
2022-05-24 12:17:00,,0825.3,5.00,0.00,27.9,26.8,00.0,36.9,29.8,19.1,-001.5,0007.90,0011.45,0007.49
2022-05-24 12:18:00,,0825.3,5.00,0.00,27.9,26.8,00.0,36.9,29.8,19.1,-001.5,0007.93,0011.39,0007.49
2022-05-24 12:19:00,,0825.3,4.99,0.00,27.9,26.8,00.0,36.9,29.8,19.1,-001.1,0007.89,0011.25,0007.47
2022-05-24 12:20:00,,0825.3,5.00,0.00,27.9,26.8,00.0,36.9,29.8,19.1,-000.8,0007.84,0011.11,0007.44
2022-05-24 12:21:00,,0825.3,5.00,0.00,27.9,26.8,00.0,36.9,29.8,19.1,-000.7,0007.79,0011.02,0007.42
2022-05-24 12:22:00,,0825.3,5.00,0.00,27.9,26.8,00.0,36.9,29.8,19.1,-000.8,0007.77,0010.98,0007.40
2022-05-24 12:23:00,,0825.4,5.00,0.00,27.9,26.8,00.0,36.9,29.8,19.1,-000.7,0007.75,0010.98,0007.37
2022-05-24 12:24:00,,0825.4,5.00,0.00,27.9,26.8,00.0,36.9,29.8,19.1,-000.6,0007.74,0011.02,0007.36
2022-05-24 12:25:00,,0825.4,5.00,0.00,27.9,26.8,00.0,36.9,29.8,19.1,-000.5,0007.74,0011.13,0007.34
2022-05-24 12:26:00,,0825.4,5.00,0.00,27.9,26.8,00.0,36.9,29.8,19.2,-000.5,0007.70,0010.68,0007.33
2022-05-24 12:27:00,,0825.4,5.00,0.00,27.9,26.8,00.0,36.9,29.8,19.2,-000.2,0007.65,0010.45,0007.31
2022-05-24 12:28:00,,0825.4,5.01,0.00,27.9,26.8,00.0,36.9,29.8,19.2,0000.0,0007.60,0010.15,0007.29
2022-05-24 12:29:00,,0825.4,5.00,0.00,27.9,26.8,00.0,36.9,29.8,19.2,0000.0,0007.58,0010.04,0007.28
2022-05-24 12:30:00,,0825.4,5.00,0.00,27.9,26.8,00.0,36.9,29.8,19.2,-000.1,0007.59,0010.08,0007.29
2022-05-24 12:31:00,,0825.4,5.00,0.00,27.9,26.8,00.0,36.8,29.8,19.2,-000.5,0007.60,0010.09,0007.30
2022-05-24 12:32:00,,0825.4,5.00,0.00,27.9,26.8,00.0,36.8,29.7,19.2,0000.2,0007.61,0010.08,0007.31
2022-05-24 12:33:00,,0825.4,5.00,0.00,27.9,26.8,00.0,36.8,29.7,19.3,0000.2,0007.61,0010.07,0007.32
2022-05-24 12:34:00,,0825.4,4.99,0.00,27.9,26.8,00.0,36.8,29.7,19.3,0000.3,0007.66,0010.24,0007.35
2022-05-24 12:35:00,,0825.4,5.00,0.00,27.9,26.7,00.0,36.8,29.7,19.4,0000.6,0007.66,0010.26,0007.37
2022-05-24 12:36:00,,0825.4,5.00,0.00,27.9,26.7,00.0,36.8,29.7,19.5,0000.9,0007.68,0010.23,0007.40
2022-05-24 12:37:00,,0825.4,5.00,0.00,27.9,26.7,00.0,36.8,29.7,19.6,0001.2,0007.72,0010.38,0007.42
2022-05-24 12:38:00,,0825.4,5.00,0.00,27.9,26.7,00.0,36.8,29.7,19.6,0000.5,0007.75,0010.45,0007.44
2022-05-24 12:39:00,,0825.4,5.00,0.00,27.9,26.7,00.0,36.8,29.7,19.7,0000.5,0007.78,0010.59,0007.46
2022-05-24 12:40:00,,0825.4,5.00,0.00,27.9,26.7,00.0,36.8,29.7,19.6,0000.2,0007.77,0010.56,0007.46
2022-05-24 12:41:00,,0825.5,4.99,0.00,27.9,26.7,00.0,36.8,29.7,19.7,0000.1,0007.76,0010.53,0007.45
2022-05-24 12:42:00,,0825.5,4.99,0.00,27.8,26.7,00.0,36.8,29.7,19.7,0000.3,0007.78,0010.58,0007.44
2022-05-24 12:43:00,,0825.4,5.00,0.00,27.8,26.7,00.0,36.8,29.7,19.7,-000.2,0007.78,0010.63,0007.43
2022-05-24 12:44:00,,0825.5,5.00,0.00,27.8,26.7,00.0,36.8,29.7,19.8,-000.6,0007.76,0010.60,0007.41
2022-05-24 12:45:00,,0825.5,5.01,0.00,27.8,26.7,00.0,36.8,29.7,19.8,-000.2,0007.74,0010.51,0007.38
2022-05-24 12:46:00,,0825.5,4.99,0.00,27.8,26.7,00.0,36.8,29.7,19.8,0000.0,0007.71,0010.39,0007.37
2022-05-24 12:47:00,,0825.5,5.00,0.00,27.8,26.7,00.0,36.8,29.7,19.9,-000.9,0007.67,0010.24,0007.35
2022-05-24 12:48:00,,0825.5,5.00,0.00,27.8,26.7,00.0,36.8,29.7,19.9,-001.1,0007.62,0010.09,0007.32
2022-05-24 12:49:00,,0825.5,5.00,0.00,27.8,26.7,00.0,36.8,29.7,20.0,-001.0,0007.58,0010.12,0007.27
2022-05-24 12:50:00,,0825.5,5.00,0.00,27.8,26.7,00.0,36.8,29.7,20.0,-001.3,0007.55,0009.98,0007.24
2022-05-24 12:51:00,,0825.5,5.00,0.00,27.8,26.7,00.0,36.8,29.7,20.1,-001.5,0007.58,0010.08,0007.24
2022-05-24 12:52:00,,0825.6,5.00,0.00,27.8,26.7,00.0,36.8,29.7,20.2,-002.0,0007.59,0010.16,0007.23
2022-05-24 12:53:00,,0825.6,5.01,0.00,27.8,26.7,00.0,36.8,29.7,20.2,-002.3,0007.54,0010.08,0007.22
2022-05-24 12:54:00,,0825.5,5.00,0.00,27.8,26.7,00.0,36.8,29.7,20.2,-002.2,0007.54,0010.10,0007.22
2022-05-24 12:55:00,,0825.5,5.00,0.00,27.8,26.7,00.0,36.8,29.7,20.2,-002.0,0007.58,0010.48,0007.24
2022-05-24 12:56:00,,0825.5,5.00,0.00,27.8,26.7,00.0,36.8,29.7,20.3,-002.0,0007.59,0010.46,0007.25
2022-05-24 12:57:00,,0825.6,5.00,0.00,27.8,26.7,00.0,36.8,29.7,20.4,-002.2,0007.59,0010.50,0007.25
2022-05-24 12:58:00,,0825.6,5.00,0.00,27.8,26.7,00.0,36.8,29.7,20.4,-002.2,0007.63,0010.61,0007.26
2022-05-24 12:59:00,,0825.5,4.99,0.00,27.8,26.7,00.0,36.8,29.7,20.5,-001.8,0007.66,0010.65,0007.28
